VU3IZK-14 Weather Reports


time (UTC)temp
C
wind
direction
speed
KPH
gust
KPH
rain 1hr
cm
rain 24hr
cm
rain mn
cm
humidity
%
barometer
mb
20260508144330 32 312 0.0 0.0 0.00 0.00 0.00 29
20260508142829 32 263 1.6 0.0 0.00 0.00 0.00 28
20260508141329 32 263 1.6 0.0 0.00 0.00 0.00 99
20260508135830 32 79 0.0 0.0 0.00 0.00 0.00 23
20260508134330 33 0 0.0 0.0 0.00 0.00 0.00 22
20260508132830 34 0 0.0 0.0 0.00 0.00 0.00 13
20260508131330 35 0 0.0 0.0 0.00 0.00 0.00 32
20260508125829 35 54 0.0 0.0 0.00 0.00 0.00 10
20260508124330 35 78 0.0 0.0 0.00 0.00 0.00 10
20260508122830 35 89 0.0 0.0 0.00 0.00 0.00 10
20260508121329 35 19 0.0 0.0 0.00 0.00 0.00 10
20260508115830 35 69 0.0 0.0 0.00 0.00 0.00 10
20260508114329 35 26 0.0 0.0 0.00 0.00 0.00 10
20260508112830 36 340 1.6 0.0 0.00 0.00 0.00 10
20260508111330 36 31 0.0 0.0 0.00 0.00 0.00 30
20260508105829 37 126 0.0 0.0 0.00 0.00 0.00 10
20260508104330 37 93 0.0 0.0 0.00 0.00 0.00 24
20260508102830 39 148 0.0 0.0 0.00 0.00 0.00 99
20260508101330 38 4 1.6 0.0 0.00 0.00 0.00 99
20260508095830 39 129 1.6 0.0 0.00 0.00 0.00 99
20260508094330 40 89 1.6 0.0 0.00 0.00 0.00 25
20260508092829 38 95 1.6 0.0 0.00 0.00 0.00 22
20260508091330 39 19 1.6 0.0 0.00 0.00 0.00 99
20260508085829 40 313 1.6 0.0 0.00 0.00 0.00 20
20260508084330 40 180 1.6 0.0 0.00 0.00 0.00 20
20260508082829 38 36 1.6 0.0 0.00 0.00 0.00 25
20260508081329 38 113 3.2 0.0 0.00 0.00 0.00 25
20260508075830 38 342 1.6 0.0 0.00 0.00 0.00 22
20260508074329 39 91 1.6 0.0 0.00 0.00 0.00 20
20260508072809 38 344 1.6 0.0 0.00 0.00 0.00 20
20260508071319 39 1 0.0 0.0 0.00 0.00 0.00 99
20260508065808 38 56 1.6 0.0 0.00 0.00 0.00 26
20260508064318 38 67 1.6 0.0 0.00 0.00 0.00 25
20260508062809 38 68 0.0 0.0 0.00 0.00 0.00 9
20260508061317 37 104 1.6 0.0 0.00 0.00 0.00 15
20260508054315 37 5 1.6 0.0 0.00 0.00 0.00 19
20260508052809 36 355 1.6 0.0 0.00 0.00 0.00 22
20260508045813 35 16 1.6 0.0 0.00 0.00 0.00 25
20260508044123 34 99 0.0 0.0 0.00 0.00 0.00 26
20260508042623 34 147 0.0 0.0 0.00 0.00 0.00 27
20260508041121 33 95 0.0 0.0 0.00 0.00 0.00 28
20260508035632 33 72 1.6 0.0 0.00 0.00 0.00 30